User: anonymous   Login
Location: Emory University Observatory
(33.7903°N, 84.3267°W)
Time: 01:23:10
(UTC-04:00)
Language:

Envisat - Orbit

View from above orbital plane
View from above orbital plane
View from above satellite
View from above satellite

Ground track
Ground track

The orbit data is extracted from the following two-line orbital elements,

1 27386U 02009A   17292.80647939 -.00000022  00000-0  65157-5 0  9998
2 27386  98.2183 332.7931 0001276  88.0340 272.0983 14.37905557818987
Epoch (UTC): 19 October 2017 19:21:19
Eccentricity: 0.0001276
inclination: 98.2183°
perigee height: 764 km
apogee height: 766 km
right ascension of ascending node: 332.7931°
argument of perigee: 88.0340°
revolutions per day: 14.37905557
mean anomaly at epoch: 272.0983°
orbit number at epoch: 81898

The dashed part of the orbit path shows where the satellite is in the earth's shadow,  

DLR